Weather reports worldwide

Advertisment
Coleshill, United Kingdom (3535): temperature & dewpoint: 27.05.2020 22:00:00 - 02.06.2020 22:00:00 (BST)Coleshill, United Kingdom (3535): temperature -20cm & temperature -100cm: 27.05.2020 22:00:00 - 02.06.2020 22:00:00 (BST)Coleshill, United Kingdom (3535): wind speed: 27.05.2020 22:00:00 - 02.06.2020 22:00:00 (BST)Coleshill, United Kingdom (3535): wind direction: 27.05.2020 22:00:00 - 02.06.2020 22:00:00 (BST)Coleshill, United Kingdom (3535): reduced air pressure: 27.05.2020 22:00:00 - 02.06.2020 22:00:00 (BST)Coleshill, United Kingdom (3535): visibility: 27.05.2020 22:00:00 - 02.06.2020 22:00:00 (BST)Coleshill, United Kingdom (3535): precipitation: 27.05.2020 22:00:00 - 02.06.2020 22:00:00 (BST)
Date & Time tt [°C] td [°C] tt -20cm [°C] tt -100cm [°C] ff [km/h] ff [kn] dd ppp [hPa] vv [km] rr [mm]
02.06.2020 22:00:00 - - - - - - - - - -
02.06.2020 21:00:00 20,3 6,3 - - 11 6 NW 1014,4 50 0,0
02.06.2020 20:00:00 22,3 7,2 - - 13 7 NW 1014,4 30 0,0
02.06.2020 19:00:00 22,5 4,9 - - 15 8 N 1014,9 45 0,0
02.06.2020 18:00:00 23,8 2,1 - - 15 8 NW 1015,4 40 0,0
02.06.2020 17:00:00 23,5 4,2 - - 9 5 N 1016,2 50 0,0
02.06.2020 16:00:00 23,4 5,1 - - 4 2 SE 1017,1 29 0,0
02.06.2020 15:00:00 23,0 4,6 - - 8 4 N 1018,1 45 0,0
02.06.2020 14:00:00 21,7 2,0 - - 11 6 NNE 1019,1 35 0,0
02.06.2020 13:00:00 20,1 3,6 - - 11 6 N 1019,7 30 0,0
02.06.2020 12:00:00 19,9 4,8 - - 11 6 N 1020,3 40 0,0
02.06.2020 11:00:00 18,8 5,9 - - 9 5 N 1020,7 23 0,0
02.06.2020 10:00:00 17,3 7,3 - - 8 4 N 1021,3 30 -
02.06.2020 09:00:00 15,1 8,3 - - 8 4 N 1022,0 26 -
02.06.2020 08:00:00 12,9 8,6 - - 8 4 N 1022,4 35 0,0
02.06.2020 07:00:00 11,0 8,3 - - 8 4 NNW 1022,6 30 0,0
02.06.2020 06:00:00 8,4 7,5 - - 4 2 NNW 1022,6 29 0,0
02.06.2020 05:00:00 8,0 6,7 - - 5 3 NNW 1022,8 35 0,0
02.06.2020 04:00:00 8,2 6,6 - - 8 4 N 1023,1 45 0,0
02.06.2020 03:00:00 8,8 6,3 - - 8 4 N 1023,5 50 0,0
02.06.2020 02:00:00 9,7 5,8 - - 5 3 N 1023,7 50 0,0
02.06.2020 01:00:00 11,3 6,0 - - 5 3 N 1024,0 50 0,0
02.06.2020 00:00:00 13,2 7,3 - - 5 3 NNE 1023,8 45 0,0
01.06.2020 23:00:00 15,5 7,8 - - 8 4 NNE 1023,6 45 0,0
01.06.2020 22:00:00 17,7 8,5 - - 9 5 NE 1023,1 40 0,0
01.06.2020 21:00:00 19,6 8,8 - - 9 5 ENE 1022,2 45 0,0
01.06.2020 20:00:00 20,9 8,3 - - 13 7 NE 1022,0 45 0,0
01.06.2020 19:00:00 22,0 7,7 - - 13 7 NNE 1022,0 40 0,0
01.06.2020 18:00:00 23,7 7,8 - - 9 5 NE 1021,9 50 0,0
01.06.2020 17:00:00 23,0 7,7 - - 9 5 NNE 1022,2 50 0,0
01.06.2020 16:00:00 22,3 7,6 - - 13 7 NE 1022,6 45 0,0
01.06.2020 15:00:00 23,5 8,7 - - 13 7 ENE 1022,9 45 0,0
01.06.2020 14:00:00 22,2 8,0 - - 9 5 E 1023,3 45 0,0
01.06.2020 13:00:00 22,3 8,6 - - 13 7 NE 1023,5 30 0,0
01.06.2020 12:00:00 20,9 7,8 - - 13 7 ENE 1024,0 50 0,0
01.06.2020 11:00:00 19,5 7,9 - - 9 5 NE 1024,5 30 0,0
01.06.2020 10:00:00 18,1 8,5 16,4 14,0 13 7 N 1024,6 30 0,0
01.06.2020 09:00:00 16,3 8,8 - - 13 7 N 1024,9 30 0,0
01.06.2020 08:00:00 13,9 8,5 - - 11 6 N 1025,0 30 0,0
01.06.2020 07:00:00 11,3 7,9 - - 9 5 N 1025,1 30 0,0
01.06.2020 06:00:00 8,4 7,5 - - 9 5 N 1025,1 35 0,0
01.06.2020 05:00:00 7,0 6,0 - - 5 3 NNW 1025,0 40 0,0
01.06.2020 04:00:00 7,6 5,9 - - 8 4 N 1025,1 50 0,0
01.06.2020 03:00:00 9,1 6,3 - - 8 4 N 1024,9 50 0,0
01.06.2020 02:00:00 8,8 6,0 - - 8 4 N 1025,1 50 0,0
01.06.2020 01:00:00 11,0 6,2 - - 8 4 N 1025,1 40 0,0
01.06.2020 00:00:00 14,1 6,9 - - 9 5 NE 1024,9 50 0,0
31.05.2020 23:00:00 15,0 6,6 - - 5 3 ENE 1024,6 50 0,0
31.05.2020 22:00:00 16,9 6,6 - - 11 6 ENE 1023,9 50 0,0
31.05.2020 21:00:00 18,8 6,3 - - 15 8 ENE 1023,3 50 0,0
31.05.2020 20:00:00 20,9 6,4 - - 16 9 ENE 1022,5 30 0,0
31.05.2020 19:00:00 22,2 5,9 - - 11 6 E 1022,1 50 0,0
31.05.2020 18:00:00 21,9 6,4 - - 13 7 ENE 1022,0 45 0,0
31.05.2020 17:00:00 23,7 6,4 - - 13 7 ENE 1021,9 40 0,0
31.05.2020 16:00:00 22,9 5,7 - - 15 8 ENE 1022,1 30 0,0
31.05.2020 15:00:00 23,4 6,4 - - 15 8 ENE 1022,4 30 0,0
31.05.2020 14:00:00 24,0 7,3 - - 13 7 E 1022,7 40 0,0
31.05.2020 13:00:00 22,9 6,9 - - 13 7 E 1022,9 40 0,0
31.05.2020 12:00:00 21,2 10,3 - - 15 8 ENE 1023,1 25 0,0
31.05.2020 11:00:00 19,7 11,4 - - 13 7 NE 1023,4 15 0,0
31.05.2020 10:00:00 16,9 10,4 16,2 13,9 11 6 NE 1023,6 18 0,0
31.05.2020 09:00:00 15,5 10,2 - - 11 6 NE 1023,8 22 0,0
31.05.2020 08:00:00 13,7 9,2 - - 13 7 NE 1023,8 17 0,0
31.05.2020 07:00:00 11,6 8,5 - - 8 4 N 1023,8 21 0,0
31.05.2020 06:00:00 8,8 7,1 - - 8 4 N 1023,6 18 0,0
31.05.2020 05:00:00 8,4 6,7 - - 9 5 N 1023,4 16 0,0
31.05.2020 04:00:00 8,4 7,1 - - 9 5 N 1023,6 19 0,0
31.05.2020 03:00:00 9,3 6,5 - - 4 2 N 1024,0 28 0,0
31.05.2020 02:00:00 11,1 7,1 - - 5 3 ENE 1024,0 35 0,0
31.05.2020 01:00:00 12,3 6,9 - - 8 4 E 1024,0 40 0,0
31.05.2020 00:00:00 13,9 7,7 - - 9 5 E 1023,6 40 0,0
30.05.2020 23:00:00 15,4 8,2 - - 11 6 E 1023,2 35 0,0
30.05.2020 22:00:00 17,0 7,9 - - 9 5 E 1022,5 45 0,0
30.05.2020 21:00:00 19,1 7,0 - - 11 6 E 1021,6 45 0,0
30.05.2020 20:00:00 21,2 7,7 - - 13 7 ENE 1021,0 45 0,0
30.05.2020 19:00:00 22,3 8,5 - - 18 10 ENE 1021,1 35 0,0
30.05.2020 18:00:00 23,9 7,5 - - 11 6 E 1021,0 45 0,0
30.05.2020 17:00:00 23,9 6,3 - - 13 7 E 1021,4 50 0,0
30.05.2020 16:00:00 23,8 6,4 - - 11 6 ENE 1021,7 29 0,0
30.05.2020 15:00:00 23,6 6,3 - - 15 8 ESE 1022,2 21 0,0
30.05.2020 14:00:00 23,4 7,7 - - 13 7 E 1022,6 35 0,0
30.05.2020 13:00:00 21,9 9,6 - - 13 7 E 1023,3 40 0,0
30.05.2020 12:00:00 20,8 9,2 - - 13 7 E 1023,7 12 0,0
30.05.2020 11:00:00 18,6 10,2 - - 13 7 NE 1024,3 23 0,0
30.05.2020 10:00:00 16,3 9,5 16,0 13,7 11 6 NE 1024,7 25 0,0
30.05.2020 09:00:00 14,3 9,0 - - 13 7 NNE 1024,9 30 0,0
30.05.2020 08:00:00 12,3 7,9 - - 9 5 NE 1025,4 21 0,0
30.05.2020 07:00:00 9,9 6,3 - - 9 5 N 1025,6 35 0,0
30.05.2020 06:00:00 7,6 5,9 - - 8 4 N 1025,5 45 0,0
30.05.2020 05:00:00 7,1 3,5 - - 5 3 NNE 1025,6 45 0,0
30.05.2020 04:00:00 7,9 2,8 - - 4 2 NE 1025,8 50 0,0
30.05.2020 03:00:00 9,5 2,9 - - 5 3 NE 1025,9 50 0,0
30.05.2020 02:00:00 11,4 3,3 - - 8 4 E 1025,8 50 0,0
30.05.2020 01:00:00 12,7 4,1 - - 8 4 E 1025,6 50 0,0
30.05.2020 00:00:00 13,3 5,6 - - 4 2 E 1025,5 50 0,0
29.05.2020 23:00:00 14,9 6,8 - - 8 4 E 1025,3 50 0,0
29.05.2020 22:00:00 16,6 7,0 - - 8 4 ENE 1024,9 45 0,0
29.05.2020 21:00:00 18,8 7,2 - - 9 5 E 1024,4 40 0,0
29.05.2020 20:00:00 21,3 6,1 - - 9 5 E 1024,1 35 0,0
29.05.2020 19:00:00 22,5 6,4 - - 11 6 E 1024,3 30 0,0
29.05.2020 18:00:00 23,1 5,7 - - 13 7 E 1024,7 45 0,0
29.05.2020 17:00:00 23,1 5,5 - - 13 7 E 1025,1 35 0,0
29.05.2020 16:00:00 23,1 4,5 - - 13 7 E 1025,5 50 0,0
29.05.2020 15:00:00 23,2 4,1 - - 15 8 E 1026,1 35 0,0
29.05.2020 14:00:00 22,6 2,0 - - 15 8 E 1026,8 40 0,0
29.05.2020 13:00:00 22,2 1,6 - - 13 7 ESE 1027,7 30 0,0
29.05.2020 12:00:00 20,8 1,7 - - 13 7 E 1028,3 45 0,0
29.05.2020 11:00:00 19,3 2,5 - - 15 8 E 1028,8 35 0,0
29.05.2020 10:00:00 18,7 3,7 15,9 13,7 11 6 ESE 1029,2 35 0,0
29.05.2020 09:00:00 16,8 4,9 - - 9 5 E 1029,5 35 0,0
29.05.2020 08:00:00 14,7 5,3 - - 5 3 ESE 1029,7 25 0,0
29.05.2020 07:00:00 11,7 6,7 - - 4 2 NNE 1029,9 30 0,0
29.05.2020 06:00:00 7,9 5,4 - - 4 2 N 1030,3 40 0,0
29.05.2020 05:00:00 7,1 4,5 - - 0 0 N 1030,3 40 0,0
29.05.2020 04:00:00 7,7 4,4 - - 0 0 N 1030,4 50 0,0
29.05.2020 03:00:00 9,7 5,0 - - 4 2 SSE 1030,5 40 0,0
29.05.2020 02:00:00 10,5 5,2 - - 4 2 S 1030,7 45 0,0
29.05.2020 01:00:00 12,0 5,5 - - 4 2 SSE 1030,9 45 0,0
29.05.2020 00:00:00 13,5 5,9 - - 8 4 SSE 1030,9 40 0,0
28.05.2020 23:00:00 15,1 6,2 - - 8 4 SE 1030,6 40 0,0
28.05.2020 22:00:00 15,8 5,9 - - 9 5 SE 1030,6 45 0,0
28.05.2020 21:00:00 18,2 5,2 - - 8 4 SE 1030,3 50 0,0
28.05.2020 20:00:00 20,9 5,4 - - 9 5 E 1030,1 35 0,0
28.05.2020 19:00:00 21,9 4,5 - - 9 5 E 1030,2 30 0,0
28.05.2020 18:00:00 22,6 5,7 - - 9 5 E 1030,6 30 0,0
28.05.2020 17:00:00 22,6 4,3 - - 11 6 ENE 1031,0 30 0,0
28.05.2020 16:00:00 22,1 4,9 - - 8 4 ENE 1031,5 30 0,0
28.05.2020 15:00:00 22,4 6,5 - - 8 4 ESE 1032,3 23 0,0
28.05.2020 14:00:00 21,7 7,9 - - 9 5 SE 1032,8 30 0,0
28.05.2020 13:00:00 20,9 7,5 - - 9 5 ESE 1033,5 50 0,0
28.05.2020 12:00:00 19,1 6,8 - - 9 5 SSE 1034,0 50 0,0
28.05.2020 11:00:00 18,1 8,7 - - 11 6 SE 1034,6 35 0,0
28.05.2020 10:00:00 17,1 9,3 15,7 13,4 9 5 SE 1035,1 45 0,0
28.05.2020 09:00:00 15,6 8,4 - - 11 6 ESE 1035,5 40 0,0
28.05.2020 08:00:00 13,6 9,1 - - 5 3 E 1036,0 29 0,0
28.05.2020 07:00:00 11,6 9,3 - - 5 3 ENE 1036,1 21 0,0
28.05.2020 06:00:00 10,0 9,1 - - 4 2 ENE 1036,1 18 0,0
28.05.2020 05:00:00 9,7 8,8 - - 5 3 ENE 1036,0 21 0,0
28.05.2020 04:00:00 9,4 8,3 - - 4 2 ENE 1036,1 26 0,0
28.05.2020 03:00:00 10,8 9,0 - - 5 3 ENE 1036,3 40 0,0
28.05.2020 02:00:00 10,4 8,3 - - 2 1 ENE 1036,3 40 0,0
28.05.2020 01:00:00 12,2 9,1 - - 8 4 NE 1036,4 40 0,0
28.05.2020 00:00:00 13,0 9,6 - - 8 4 NNE 1036,5 35 0,0
27.05.2020 23:00:00 14,3 9,7 - - 8 4 E 1036,5 40 0,0
27.05.2020 22:00:00 15,8 9,0 - - 5 3 NNE 1036,2 45 0,0

tt = temperature
td = dewpoint
tt -20cm = temperature -20cm
tt -100cm = temperature -100cm
ff = wind speed
dd = wind direction
ppp = reduced air pressure
vv = visibility
rr = precipitation

Next stations